Hourly Data Report for May 18, 2012

All times are specified in Local Standard Time (LST). Add 1 hour to adjust for Daylight Saving Time where and when it is observed.

LONDON A
ONTARIO

43°01'59.000" N
81°09'04.000" W
278.00 m
6144473
71623
YXU

Download Data

Hourly Data (May 2012)
Hourly Data Report for May 18, 2012
Temp Definition
°C
Dew Point Temp Definition
°C
Rel Hum Definition
%
Wind Dir Definition
10's deg

Wind Spd Definition
km/h
Visibility Definition
km
Stn Press Definition
kPa
Hmdx Definition


Wind Chill Definition


Weather Definition


TIME
00:00 Legend Double Dagger 5.3 3.2 86 10 9 10.0 98.92     LegendNANA
01:00 Legend Double Dagger 5.3 3.3 87 8 6 10.0 98.85     Clear
02:00 Legend Double Dagger 4.7 2.7 87   0 10.0 98.87     LegendNANA
03:00 Legend Double Dagger 4.7 3.7 93   0 10.0 98.83     LegendNANA
04:00 Legend Double Dagger 3.8 2.5 91 3 5 10.0 98.83     Mostly Cloudy
05:00 Legend Double Dagger 4.3 3.3 93 2 4 10.0 98.80     LegendNANA
06:00 Legend Double Dagger 7.0 4.2 82 3 4 10.0 98.87     LegendNANA
07:00 Legend Double Dagger 10.0 5.4 73 12 12 10.0 98.90     Mostly Cloudy
08:00 Legend Double Dagger 14.5 4.6 51 10 7 10.0 98.96     LegendNANA
09:00 Legend Double Dagger 16.5 4.6 45 11 10 10.0 98.96     LegendNANA
10:00 Legend Double Dagger 17.9 6.5 47 13 13 10.0 98.94     Mainly Clear
11:00 Legend Double Dagger 19.4 4.5 37 10 6 10.0 98.92     LegendNANA
12:00 Legend Double Dagger 20.6 4.8 35 19 7 10.0 98.88     LegendNANA
13:00 Legend Double Dagger 22.3 3.6 29 18 16 10.0 98.84     Mainly Clear
14:00 Legend Double Dagger 23.1 4.8 30 8 12 10.0 98.78     LegendNANA
15:00 Legend Double Dagger 23.4 4.6 29 14 5 10.0 98.74     LegendNANA
16:00 Legend Double Dagger 22.7 5.4 32 19 13 10.0 98.70     Mainly Clear
17:00 Legend Double Dagger 22.8 5.9 33 15 20 10.0 98.66     LegendNANA
18:00 Legend Double Dagger 22.0 1.8 26 16 18 10.0 98.64     LegendNANA
19:00 Legend Double Dagger 20.2 -1.5 23 18 10 10.0 98.65     Mainly Clear
20:00 Legend Double Dagger 19.0 -0.8 26 18 8 10.0 98.66     LegendNANA
21:00 Legend Double Dagger 16.5 1.1 35 14 7 10.0 98.72     LegendNANA
22:00 Legend Double Dagger 14.4 3.0 46 14 6 10.0 98.75     Clear
23:00 Legend Double Dagger 12.9 2.5 49 12 4 10.0 98.74     LegendNANA

Notes on Data Quality.

Legend

  • E = Estimated
  • M = Missing
  • NA = Not Available
  • ‡ = Partner data that is not subject to review by the National Climate Archives
Date modified: